Weather Roundup
Issued by NWS Springfield, MO

Home | Current Version | Previous Version | Text Only | Print | Product List | Glossary On
Versions: 1 2 3 4 5 6 7 8 9 10 11 12 13 14 15 16 17 18 19 20 21 22 23 24 25 26 27 28 29 30 31 32 33 34 35 36 37 38 39 40 41 42 43 44 45 46 47 48 49 50
000
NZUS99 KSGF 301107
HRRSGF

HOURLY WEATHER
NATIONAL WEATHER SERVICE SPRINGFIELD MO
600 AM CDT MON MAR 30 2015

......SGF CWA......

CITY           SKY/WX    TMP DP  RH WIND       PRES   REMARKS
SPRINGFIELD    CLEAR     35  32  88 CALM      30.20R
JOPLIN         CLEAR     38  36  92 CALM      30.19F
WEST PLAINS    CLEAR     43  36  76 NW6       30.18R
ROLLA          CLEAR     40  34  79 CALM      30.17R
OSAGE BEACH    CLEAR     34  30  86 CALM      30.19R
BRANSON        CLEAR     41  39  93 CALM      30.21R

......SURROUNDING SGF CWA......

CITY           SKY/WX    TMP DP  RH WIND       PRES   REMARKS
CHANUTE        CLEAR     33  31  92 CALM      30.21R
PARSONS        CLEAR     33  32  96 CALM      30.22R
COFFEYVILLE    CLEAR     35  33  92 CALM      30.21R
EMPORIA        CLEAR     37  30  75 CALM      30.19R
GROVE OK       CLEAR     37  37 100 CALM      30.20S FOG
ROGERS AR      CLEAR     43  40  89 E7        30.19F
SILOAM SPRINGS CLEAR     43  36  75 E6        30.19F
HARRISON AR    CLEAR     46  41  82 W5        30.20R
NEAR YELLVILLE CLEAR     45  37  76 CALM      30.20R

......KANSAS AND MISSOURI......

CITY           SKY/WX    TMP DP  RH WIND       PRES   REMARKS
KANSAS CTY INT CLEAR     36  30  79 SW8       30.16S WCI  30
DOWNTOWN KC    CLEAR     38  34  85 SW5       30.17S WCI  34
COLUMBIA       CLEAR     42  35  76 W5        30.17S
SEDALIA        CLEAR     39  33  79 SW9       30.19R WCI  33
ST JOSEPH      NOT AVBL
ST LOUIS       CLEAR     42  34  73 W7        30.16R
SPIRIT OF STL  CLEAR     33  30  88 CALM      30.16R
KIRKSVILLE     CLEAR     32  27  81 SW6       30.15R WCI  26
WICHITA        CLEAR     39  31  72 CALM      30.19S
TOPEKA         CLEAR     34  30  85 CALM      30.18S
OLATHE         CLEAR     36  34  92 CALM      30.17R

......TENNESSEE......

CITY           SKY/WX    TMP DP  RH WIND       PRES   REMARKS
MEMPHIS        CLEAR     53  47  79 N3        30.15R
NASHVILLE      PTCLDY    47  45  93 W5        30.10R

......ARKANSAS.......

CITY           SKY/WX    TMP DP  RH WIND       PRES   REMARKS
FAYETTEVILLE   CLEAR     36  36 100 CALM      30.20R FOG
FT SMITH       CLEAR     45  42  89 CALM      30.18R
LITTLE ROCK    CLEAR     53  45  74 CALM      30.18R

......OKLAHOMA.......

CITY           SKY/WX    TMP DP  RH WIND       PRES   REMARKS
TULSA          CLEAR     44  42  93 CALM      30.18R
PONCA CITY     CLEAR     36  32  85 NE5       30.19F WCI  32
MCALESTER      PTCLDY    47  43  86 NE3       30.17R
OKLAHOMA CITY  PTCLDY    48  38  68 CALM      30.17R

......IOWA............

CITY           SKY/WX    TMP DP  RH WIND       PRES   REMARKS
DES MOINES     PTCLDY    37  24  59 SW3       30.10F
QUAD CITIES    CLEAR     29  25  85 SW8       30.07R WCI  21

......ILLINOIS........

CITY           SKY/WX    TMP DP  RH WIND       PRES   REMARKS
QUINCY         CLEAR     38  30  73 W7        30.14R WCI  33
CHICAGO        CLEAR     35  28  75 W9        29.99R WCI  28




USA.gov is the U.S. government's official web portal to all federal, state and local government web resources and services.